Miscellaneous Local Product
Issued by NWS Hastings, NE

Home | Current Version | Previous Version | Graphics & Text | Print | Product List | Glossary On
Versions: 1 2 3 4 5 6 7 8 9 10 11 12 13 14 15 16 17 18 19 20 21 22 23 24 25 26 27 28 29 30 31 32 33 34 35 36 37 38 39 40 41 42 43 44 45 46 47 48 49 50
000
AXUS43 KGID 261002
MISGRI

GID CWA HOURLY WEATHER ROUNDUP
NATIONAL WEATHER SERVICE HASTINGS NE
400 AM CST MON JAN 26 2015

NOTE: "FAIR" INDICATES FEW OR NO CLOUDS BELOW 12,000 FEET WITH NO
SIGNIFICANT WEATHER AND/OR OBSTRUCTIONS TO VISIBILITY.

...SOUTH CENTRAL NEBRASKA...

CITY           SKY/WX    TMP DP  RH WIND       PRES   REMARKS
GRAND ISLAND   CLEAR     32  26  78 SW12      29.96F WCI  23
HASTINGS       CLEAR     31  24  75 SW6       29.96F WCI  25
KEARNEY        CLEAR     36  25  64 W10       29.97S WCI  28
ORD            CLEAR     24  21  88 CALM      29.93F
YORK           PTCLDY    32  27  80 SW10      29.97F WCI  24
AURORA         PTCLDY    33  28  83 SW10      29.96F WCI  24
LEXINGTON      CLEAR     37  31  80 NW15      29.99S WCI  28
HOLDREGE       CLEAR     36  27  69 W9        29.98S WCI  29
HEBRON         CLEAR     32  26  80 SW6       30.01F WCI  26

...NEBRASKA PANHANDLE...

CITY           SKY/WX    TMP DP  RH WIND       PRES   REMARKS
CHADRON        MOCLDY    42  30  62 NW10      30.07R
ALLIANCE       MOCLDY    40  31  70 NW15      30.06S WCI  32
SCOTTSBLUFF    CLOUDY    40  31  70 NW10      30.12S WCI  33
SIDNEY         PTCLDY    40  29  64 W10       30.11F WCI  33

...WESTERN AND NORTH CENTRAL NEBRASKA...

CITY           SKY/WX    TMP DP  RH WIND       PRES   REMARKS
VALENTINE      CLEAR     34  31  88 W9        29.94F WCI  27
AINSWORTH      PTCLDY    39  32  75 W12       29.94S WCI  32
ONEILL         PTCLDY    37  32  82 SW8       29.89F WCI  31
BROKEN BOW     CLEAR     44  33  65 NW16      29.95F
IMPERIAL       PTCLDY    40  30  67 NW13      30.06S WCI  32
NORTH PLATTE   CLEAR     31  28  89 W10       30.02S WCI  22
MCCOOK         PTCLDY    39  31  72 W14       30.03F WCI  31

...EASTERN NEBRASKA...

CITY           SKY/WX    TMP DP  RH WIND       PRES   REMARKS
NORFOLK        CLEAR     36  29  75 SW17      29.88F WCI  26
SO SIOUX CITY  CLEAR     29  26  89 E7        29.91F WCI  22
TEKAMAH        CLEAR     28  25  88 SE7       29.95F WCI  21
COLUMBUS       CLEAR     34  25  69 SW12      29.95S WCI  25
ALBION         CLEAR     34  28  79 SW5       29.93F WCI  30
OMAHA EPPLEY   CLEAR     27  25  92 S9        29.96F WCI  18
OFFUTT AFB     CLEAR     22  21  95 S5        29.96F WCI  16
MILLARD        CLEAR     28  26  91 CALM      29.98F
LINCOLN        CLEAR     31  27  85 S6        29.98F WCI  25
NEBRASKA CITY  CLEAR     28  28  99 SW9       30.00F WCI  20
BEATRICE       CLEAR     31  28  90 SW6       30.00F WCI  25
FALLS CITY     CLEAR     29  26  89 SW9       30.01F WCI  20

...NORTHERN KANSAS...

CITY           SKY/WX    TMP DP  RH WIND       PRES   REMARKS
GOODLAND       PTCLDY    40  30  67 W16       30.10F WCI  31
HILL CITY      CLEAR     36  29  75 W6        30.04F WCI  31
NORTON         SUNNY     34  27  75 W10       30.01  WCI  26
PHILLIPSBURG   CLEAR     34  27  75 W9        30.01F WCI  26
SMITH CENTER   CLEAR     27  21  80 S6        30.01F WCI  20
BELOIT         CLEAR     32  28  86 SE7       30.01F WCI  26
HAYS           CLEAR     30  19  64 W10       30.04F WCI  21
RUSSELL        CLEAR     31  24  75 SW13      30.02F WCI  21
CONCORDIA      CLEAR     32  29  88 SW8       30.01F WCI  25
SALINA         CLEAR     27  25  92 S6        30.07F WCI  20
TOPEKA         CLEAR     23  22  96 CALM      30.08F



USA.gov is the U.S. government's official web portal to all federal, state and local government web resources and services.